This demonstration page uses our WeatherBlox Daily Observations layout. Learn more.

Left ArrowRight Arrow

Hourly Observations for July 27, 2019

Temp ( °F °C ) Dew Point ( °F °C ) Humidity (%) Winds ( mph kmh ) Pressure ( in mb ) Visibility ( mi km ) Precip ( " mm )
12:53 am 00:53 Clear 65 18.3 64 17.8 97 97 N N/A 30.22 1024 10 16 N/A
1:53 am 01:53 Clear 64 17.8 63 17.2 96 96 N N/A 30.23 1024 10 16 N/A
2:53 am 02:53 Clear 63 17.2 62 16.7 97 97 N N/A 30.22 1024 10 16 N/A
3:53 am 03:53 Clear 63 17.2 62 16.7 97 97 N N/A 30.22 1024 10 16 N/A
4:53 am 04:53 Clear 62 16.7 62 16.7 100 100 N N/A 30.22 1024 9 14 N/A
5:53 am 05:53 Clear 62 16.7 61 16.1 96 96 N N/A 30.23 1024 10 16 N/A
6:53 am 06:53 Sunny 63 17.2 62 16.7 97 97 N N/A 30.24 1024 9 14 N/A
7:53 am 07:53 Sunny 67 19.4 65 18.3 93 93 N N/A 30.26 1025 10 16 N/A
8:53 am 08:53 Sunny 70 21.1 66 18.9 87 87 N N/A 30.27 1025 10 16 N/A
9:53 am 09:53 Sunny 77 25 65 18.3 66 66 N N/A 30.27 1025 10 16 N/A
10:53 am 10:53 Sunny 81 27.2 64 17.8 57 57 SW 8 13 30.26 1025 10 16 N/A
11:53 am 11:53 Sunny 84 28.9 65 18.3 53 53 VRB 7 11 30.25 1024 10 16 N/A
12:53 pm 12:53 Mostly Sunny 84 28.9 64 17.8 51 51 SSW 8 13 30.24 1024 10 16 N/A
1:53 pm 13:53 Mostly Sunny 86 30 65 18.3 49 49 WSW 9 15 30.22 1023 10 16 N/A
2:53 pm 14:53 Partly Cloudy 86 30 65 18.3 49 49 SW 9 15 30.19 1023 10 16 N/A
3:53 pm 15:53 Sunny 88 31.1 64 17.8 45 45 WSW 10 17 30.18 1022 10 16 N/A
4:53 pm 16:53 Mostly Sunny 88 31.1 63 17.2 43 43 SW 8 13 30.17 1022 10 16 N/A
5:53 pm 17:53 Sunny 87 30.6 63 17.2 45 45 VRB 6 9 30.16 1021 10 16 N/A
6:53 pm 18:53 Sunny 86 30 65 18.3 49 49 VRB 6 9 30.15 1021 10 16 N/A
7:53 pm 19:53 Sunny 84 28.9 63 17.2 49 49 WSW 6 9 30.16 1021 10 16 N/A
8:53 pm 20:53 Sunny 78 25.6 67 19.4 69 69 WSW 3 6 30.17 1022 10 16 N/A
9:23 pm 21:23 Mostly Clear 73 22.8 68 20 84 84 N N/A 30.16 1021 10 16 N/A
9:53 pm 21:53 Clear 72 22.2 68 20 87 87 N N/A 30.17 1022 10 16 N/A
10:53 pm 22:53 Clear 70 21.1 67 19.4 90 90 N N/A 30.17 1022 10 16 N/A
11:53 pm 23:53 Clear 69 20.6 67 19.4 93 93 N N/A 30.16 1022 10 16 N/A

Powered by AerisWeather